www.pogodaiklimat.ru

Погода и климат >> Архив погоды >> Канада >> Thunder Bay


ПОГОДА в Thunder Bay

  • Прогноз погоды в Thunder Bay
  • Монитор погоды в Thunder Bay
  • Климат города

АРХИВ ПОГОДЫ в Thunder Bay

Время (UTC), дата Ветер
(напр.,м/с)
 
Видим.   Явления Облачность Т
(С)
Тd
(С)
f
(%)
Тe
(С)
Тes
(С)
Комфортность P
(гПа)
Po
(гПа)
Тmin
(С)
Tmax
(С)
R
(мм)
R24
(мм)
S
(см)
18 11.10 СЗ 7 16 км осадки 10/10 300 м
[]
+2.3 +0.4 87 -4 -4 1005.3 980.9 +0.5 +2.4 0.5
21 11.10 СЗ 7 6000 м осадки 10/10 300 м
[]
+1.3 0.0 91 -5 -5 1007.5 983.0
00 12.10 СЗ 5 16 км {осадки} 5/5 1000 м
[]
+0.3 -1.9 85 -5 -5 1010.1 985.5 +0.3 +4.2 0.3
03 12.10 З 5 16 км ясно -0.7 -2.9 85 -7 -7 1011.5 986.8
06 12.10 З 3 16 км ясно -1.7 -3.6 87 -7 -7 1012.6 987.9 -1.9 +4.2 221
09 12.10 З 3 16 км 9/9 300 м
[]
-1.8 -2.8 93 -7 -7 1013.1 988.4
12 12.10 З 3 16 км 10/10 600 м
[]
-1.7 -3.1 90 -6 -6 1013.3 988.5 -3.0 +4.2
15 12.10 СЗ 5 16 км 10/10 600 м
[]
+0.6 -3.7 73 -5 -5 1013.1 988.4
18 12.10 СЗ 5 16 км 10/10 600 м
[]
+1.7 -3.7 67 -4 -4 1011.6 986.9 -3.0 +2.0
21 12.10 З 6 16 км 10/10 600 м
[]
+1.5 -3.2 71 -4 -4 1010.3 985.6
00 13.10 З 5 16 км 10/10 600 м
[]
-0.2 -3.9 76 -6 -6 1010.2 985.5 -3.0 +2.6
03 13.10 З 5 16 км 10/10 600 м
[]
-0.3 -3.9 77 -6 -6 1010.3 985.6
06 13.10 З 4 16 км 9/9 600 м
[]
-1.7 -4.8 79 -7 -7 1010.1 985.4 -3.0 +2.6 22
09 13.10 З 2 16 км ясно -4.6 -5.6 93 -9 -9 1010.5 985.7
12 13.10 В 1 16 км 9/0
[]
-5.8 -5.8 100 -7 -7 1010.0 985.2 -6.0 +2.6
15 13.10 СЗ 1 16 км 10/10 1500 м
[]
-1.0 -2.2 92 -2 -2 1009.7 985.0
18 13.10 В 2 16 км слаб. дождь 10/10 600 м
[]
+4.6 +2.3 85 +2 +2 1007.7 983.2 -6.0 +4.6
21 13.10 Ю 4 16 км {осадки} 10/10 300 м
[]
+5.8 +3.0 82 +2 +2 1006.7 982.1
00 14.10 ЮЗ 1 16 км 10/10 1000 м
[]
+5.0 +4.1 94 +5 +5 1006.6 982.0 -6.0 +6.2 0.5
03 14.10 З 5 16 км 10/10 600 м
[]
+4.5 +3.2 91 -1 -1 1008.0 983.5
06 14.10 З 5 16 км 10/10 600 м
[]
+2.7 +0.1 83 -2 -2 1010.6 986.1 -6.0 +6.2 4
09 14.10 З 6 16 км 10/10 1000 м
[]
+2.0 -0.7 82 -4 -4 1012.7 988.2
12 14.10 З 5 16 км ясно +0.4 -2.4 81 -6 -6 1014.2 989.6 0.0 +6.2
15 14.10 З 7 16 км 10/10 600 м
[]
+2.7 -2.4 69 -3 -3 1016.3 991.7
18 14.10 З 5 16 км 10/10 600 м
[]
+3.9 -2.2 64 -1 -1 1017.1 992.4 0.0 +4.3
21 14.10 З 5 16 км 10/10 600 м
[]
+4.0 -2.5 63 -1 -1 1017.1 992.4
00 15.10 З 3 16 км 10/0
[]
+1.7 -2.3 75 -2 -2 1017.3 992.5 0.0 +4.4
03 15.10 З 3 16 км 10/10 1000 м
[]
+1.6 -1.4 80 -3 -3 1017.3 992.6
06 15.10 З 4 16 км 10/10 1500 м
[]
+0.7 -2.0 82 -4 -4 1016.2 991.5 0.0 +4.4 15
09 15.10 З 4 16 км 10/0 2000 м
[]
+0.3 -3.0 78 -5 -5 1014.9 990.2
12 15.10 З 4 16 км слаб. снег 10/10 1000 м
[]
+0.1 -2.4 83 -5 -5 1014.0 989.3 -0.4 +4.4
15 15.10 З 5 16 км слаб. снег 10/10 300 м
[]
+1.0 -1.5 83 -5 -5 1014.2 989.5
18 15.10 СЗ 7 16 км 10/10 1000 м
[]
+3.8 -3.0 61 -2 -2 1014.5 989.8 -0.4 +5.0
21 15.10 З 6 16 км 10/10 1000 м
[]
+3.9 -3.6 58 -1 -1 1013.8 989.2
00 16.10 ЮЗ 4 16 км 9/9 1000 м
[]
+1.9 -3.6 67 -2 -2 1014.0 989.3 -0.4 +5.0
03 16.10 Ю 2 16 км 10/0 2000 м
[]
+0.8 -2.3 80 -2 -2 1011.9 987.2
06 16.10 ЮЗ 6 16 км слаб. дождь 10/10 1000 м
[]
+2.1 -0.3 84 -4 -4 1008.3 983.8 -0.4 +5.0 18
09 16.10 ЮЗ 4 16 км 10/10 1000 м
[]
+3.5 -1.1 72 -1 -1 1006.3 981.9
12 16.10 З 4 16 км слаб. дождь 10/0
[]
+4.0 +0.1 76 -0 -0 1005.8 981.4 +0.2 +5.0
15 16.10 З 7 16 км 9/9 600 м
[]
+6.6 +0.9 67 +2 +2 1006.6 982.2
18 16.10 СЗ 9 11 км слаб. дождь {осадки} 9/9 600 м
[]
+2.9 +1.3 89 -4 -4 1008.8 984.3 +0.2 +6.8 1
21 16.10 СЗ 8 16 км {осадки} 10/10 1000 м
[]
+3.2 -3.8 60 -3 -3 1011.1 986.6
00 17.10 З 6 16 км 10/10 1000 м
[]
+1.3 -4.6 65 -4 -4 1014.0 989.4 +1.2 +6.8
03 17.10 СЗ 5 16 км 10/10 1000 м
[]
+1.1 -4.1 68 -4 -4 1015.4 990.8
06 17.10 З 4 16 км 9/0 2000 м
[]
-0.9 -5.3 72 -6 -6 1016.3 991.5 -0.9 +6.8 201
09 17.10 З 4 16 км слаб. снег 10/10 1000 м
[]
-0.5 -4.4 75 -6 -6 1016.5 991.8
12 17.10 СЗ 5 16 км 3/0 2000 м
[]
-1.5 -5.0 77 -8 -8 1018.7 993.8 -1.5 +6.8
15 17.10 СЗ 7 16 км 9/9 1000 м
[]
-1.3 -8.0 60 -8 -8 1022.9 997.9
18 17.10 СЗ 7 16 км 9/9 1000 м
[]
+1.5 -9.2 45 -4 -4 1025.7 1000.7 -1.6 +1.7
21 17.10 СЗ 6 16 км 9/9 1500 м
[]
+1.8 -10.3 40 -3 -3 1027.1 1002.1
00 18.10 СЗ 2 16 км ясно -2.0 -9.9 55 -5 -5 1029.0 1003.8 -2.0 +3.0
03 18.10 З 1 16 км ясно -4.8 -7.5 81 -7 -7 1029.9 1004.6
06 18.10 ЮЗ 1 16 км ясно -6.7 -8.1 90 -7 -7 1029.2 1003.9 -7.2 +3.0 171
09 18.10 З 1 16 км ясно -7.0 -8.1 92 -10 -10 1027.1 1001.9
12 18.10 СЗ 1 16 км ясно -6.4 -7.6 91 -9 -9 1023.9 998.7 -8.1 +3.0

 

Местоположение метеостанции Thunder Bay (Канада): широта 48.37 долгота -89.32 высота над уровнем моря 199 м.

В архиве по умолчанию представлена погода в Thunder Bay за последнюю неделю. Архивные данные за месяц целиком и за предыдущие месяцы, начиная с января 2011 года, Вы можете получить, выбрав интересующий диапазон дат из раскрывающегося списка и нажав кнопку "Ввод!".


*Определитесь, кто Вы:
робот инопланетянин человек

Внимание! Время в таблицах - всемирное. Для получения местного времени необходимо прибавить поправку, которая в Thunder Bay равна -8 ч.

Смотрите также архив погоды в соседних городах и на ближайших метеорологических станциях:

Погода в Thunder Bay (Канада) (1 км)
Погода в Welcome Island (Канада) (16 км)
Погода в Trowbridge (Канада) (35 км)
Погода в Upsala (Канада) (111 км)
Погода в Cameron Falls (Канада) (113 км)
Погода в Katatota Island (Канада) (167 км)
Погода в Atikokan (Канада) (176 км)
Погода в Armstrong (Канада) (216 км)
Погода в Pukaskwa (Канада) (224 км)
Погода в Geraldton (Канада) (234 км)

Пояснения к столбцам:

Ветер - указаны скорость ветра в м/с - средняя за 10 мин, порывы в срок и между сроками (в фигурных скобках) и направление, откуда дует ветер: С - северный, СВ - северо-восточный, В - восточный, ЮВ - юго-восточный, Ю - южный, ЮЗ - юго-западный, З - западный, СЗ - северо-западный.
Видимость - горизонтальная дальность видимости в метрах или километрах. При видимости от 1 до 10 км при отсутствии осадков обычно наблюдается дымка, при ухудшении видимости до 1 км и менее - туман. В сухую погоду видимость может ухудшаться дымом, пылью или мглою.
Явления - указаны атмосферные явления, наблюдавшиеся в срок или в последний час перед сроком; фигурными скобками обозначены явления, наблюдавшиеся между сроками (за 1-3 часа до срока); квадратными скобками обозначены град или гололедные отложения с указанием их диаметра в мм.
Облачность - указаны через наклонную черту общая и нижняя облачность в баллах и высота нижней границы облаков в метрах; квадратными скобками обозначены формы облаков: Ci - перистые, Cs - перисто-слоистые, Cc - перисто-кучевые, Ac - высококучевые, As - высокослоистые, Sc - слоисто-кучевые, Ns - слоисто-дождевые, Cu - кучевые, Cb - кучево-дождевые. Подробнее классификацию облаков см. в Атласе облаков (PDF).
T - Температура воздуха - температура, измеренная на высоте 2 м над землей.
Td - Температура точки росы - температура, при понижении до которой содержащийся в воздухе водяной пар достигнет насыщения.
f - Относительная влажность воздуха - влажноcть воздуха, измеренная на высоте 2 м над землей.
Te - Эффективная температура - температура, которую ощущает одетый по сезону человек в тени. Характеристика душности погоды. При расчете учитывается влияние влажности воздуха и скорости ветра на теплоощущения человека.
Tes - Эффективная температура на солнце - температура, которую ощущает человек, с поправкой на солнечный нагрев. Характеристика знойности погоды. Зависит от высоты солнца над горизонтом, облачности и скорости ветра. Ночью, в пасмурную погоду, а также при ветре 12 м/с и более поправка равна нулю.
P - Атмосферное давление - приведенное к уровню моря атмосферное давление.
Po - Атмосферное давление - измеренное на уровне метеостанции атмосферное давление.
Tmin - Минимальная температура - минимум температуры воздуха на высоте 2 м над землей.
Tmax - Максимальная температура - максимум температуры воздуха на высоте 2 м над землей.
R - Количество осадков - Количество выпавших осадков за период времени, мм. При наведении курсора мыши на число - период времени, за который выпало указанное количество осадков.
R24 - Количество осадков - Количество выпавших осадков за 24 часа, мм.
S - Снежный покров - Высота снежного покрова, см. При наведении курсора мыши на число - состояние снежного покрова и степень покрытия местности в баллах.